Weather History for Kenora, ON

Change the Weather History Date:

Friday, January 24, 2014

  Actual Average Record
Temperature  
Mean Temperature 11 °F -  
Max Temperature 24 °F 14 °F 24 °F (2006)
Min Temperature -2 °F -4 °F -31 °F (2013)
Degree Days  
Heating Degree Days 54    
Moisture  
Dew Point 9 °F    
Average Humidity 82    
Maximum Humidity 100    
Minimum Humidity 53    
Precipitation  
Precipitation 0.03 in 0.03 in - ()
Sea Level Pressure  
Sea Level Pressure 29.56 in    
Wind  
Wind Speed 11 mph ()    
Max Wind Speed 22 mph    
Max Gust Speed 37 mph    
Visibility 6.4 miles    
Events Snow    
Averages and records for this station are not official NWS values.
T = Trace of Precipitation, MM = Missing Value Source: Averaged Metar Reports

Daily Weather History Graph

Daily Weather History Graph

Search for Another Location

Airport:

Trip Planner

Search our weather history database for the weather conditions in past years. The results will help you decide how hot, cold, wet, or windy it might be!

Date:

Astronomy

Jan. 24, 2014 Rise Set
Actual Time 8:00 AM CST 4:59 PM CST
Civil Twilight 7:24 AM CST 5:34 PM CST
Nautical Twilight 6:45 AM CST 6:14 PM CST
Astronomical Twilight 6:07 AM CST 6:52 PM CST
Moon 1:20 AM CST (1/24) 11:24 AM CST (1/24)
Length of Visible Light 10h 09m
Length of Day
8h 58m
Last Quarter, 44% of the Moon is Illuminated
Jan 24
Last Quarter
Jan 30
New
Feb 6
First Quarter
Feb 14
Full
Feb 22
Last Quarter

Hourly Weather History & Observations

Time (CST) Temp. Windchill Dew Point Humidity Pressure Visibility Wind Dir Wind Speed Gust Speed Precip Events Conditions
12:00 AM 4 °F - 0 °F 77% 29.72 in 0 mi SW 13.8 mph - - Snow Light Snow
12:00 AM 3.2 °F -14.6 °F -0.4 °F 85% 29.72 in 0.5 mi SSW 13.8 mph - N/A Snow Light Snow
1:00 AM 5.0 °F -10.8 °F 1.4 °F 85% 29.69 in 1.0 mi SSW 11.5 mph - N/A Snow Light Snow
2:00 AM 6.8 °F -7.8 °F 3.2 °F 85% 29.65 in 2.0 mi WSW 10.4 mph 17.3 mph N/A Snow Light Snow
3:00 AM 8.6 °F -7.0 °F 5.0 °F 85% 29.65 in 6.0 mi WSW 12.7 mph - N/A Snow Light Snow
4:00 AM 10.4 °F -1.5 °F 6.8 °F 85% 29.64 in 6.0 mi West 8.1 mph - N/A Snow Light Snow
5:00 AM 12.2 °F 0.7 °F 10.4 °F 92% 29.63 in 8.0 mi West 8.1 mph - N/A Snow Light Snow
6:00 AM 12 °F - 10 °F 86% 29.62 in 10 mi West 5.8 mph - - Snow Light Snow
6:00 AM 12.2 °F 2.9 °F 10.4 °F 92% 29.62 in 10.0 mi West 5.8 mph - N/A Snow Light Snow
6:24 AM 12.2 °F 4.3 °F 10.4 °F 92% 29.59 in 6.0 mi WSW 4.6 mph - N/A Snow Light Freezing Drizzle
7:00 AM 15.8 °F 4.2 °F 14.0 °F 93% 29.59 in 6.0 mi NW 9.2 mph 17.3 mph N/A   Light Freezing Drizzle
8:00 AM 17.6 °F 7.3 °F 15.8 °F 93% 29.57 in 3.0 mi WNW 8.1 mph - N/A   Light Freezing Drizzle
8:26 AM 17.6 °F 7.3 °F 15.8 °F 93% 29.58 in 2.0 mi WNW 8.1 mph - N/A   Light Freezing Drizzle
9:00 AM 17.6 °F 9.3 °F 15.8 °F 93% 29.54 in 2.0 mi West 5.8 mph - N/A   Light Freezing Drizzle
10:00 AM 19.4 °F 7.2 °F 17.6 °F 93% 29.51 in 3.0 mi West 11.5 mph - N/A Snow Light Freezing Drizzle
10:17 AM 19.4 °F 8.6 °F 17.6 °F 93% 29.50 in 1.2 mi West 9.2 mph - N/A Snow Light Snow
11:00 AM 21.2 °F 8.9 °F 19.4 °F 93% 29.47 in 0.8 mi WSW 12.7 mph - N/A Snow Light Snow
12:00 PM 23 °F - 21 °F 88% 29.44 in 2 mi West 11.5 mph - -  
12:00 PM 23.0 °F 10.6 °F 21.2 °F 93% 29.44 in 2.5 mi West 13.8 mph - N/A Snow Light Snow
12:36 PM 23.0 °F 11.7 °F 21.2 °F 93% 29.42 in 3.0 mi West 11.5 mph 19.6 mph N/A Snow Light Snow
1:00 PM 23.0 °F 11.7 °F 23.0 °F 100% 29.41 in 3.0 mi WNW 11.5 mph 19.6 mph N/A Snow Light Snow
1:14 PM 24.8 °F 12.9 °F 21.2 °F 86% 29.40 in 1.0 mi WNW 13.8 mph 26.5 mph N/A Snow Light Snow
1:41 PM 24.8 °F 11.9 °F 21.2 °F 86% 29.39 in 0.5 mi NW 16.1 mph - N/A Snow Light Snow
2:00 PM 23.0 °F 8.3 °F 19.4 °F 86% 29.40 in 10.0 mi NW 19.6 mph 36.8 mph N/A Snow Light Snow
3:00 PM 19.4 °F 4.5 °F 14.0 °F 80% 29.42 in 15.0 mi NNW 17.3 mph 28.8 mph N/A Snow Low Drifting Snow
4:00 PM 17.6 °F 3.2 °F 10.4 °F 73% 29.46 in 10.0 mi NW 15.0 mph 28.8 mph N/A Snow Low Drifting Snow
5:00 PM 14.0 °F -4.3 °F 6.8 °F 73% 29.51 in 12.0 mi NNW 21.9 mph 33.4 mph N/A Snow Low Drifting Snow
6:00 PM 12 °F - 3 °F 53% 29.56 in 12 mi NNW 16.1 mph - - Snow Low Drifting Snow
6:00 PM 12.2 °F -3.1 °F 3.2 °F 67% 29.56 in 12.0 mi NNW 13.8 mph 26.5 mph N/A Snow Low Drifting Snow
6:17 PM 10.4 °F -7.2 °F 3.2 °F 73% 29.57 in 6.0 mi NNW 17.3 mph 26.5 mph N/A Snow Light Snow
7:00 PM 8.6 °F -7.7 °F 3.2 °F 79% 29.59 in 3.0 mi NNW 13.8 mph 21.9 mph N/A Snow Light Snow
7:50 PM 5.0 °F -16.2 °F -5.8 °F 61% 29.63 in 10.0 mi NNW 21.9 mph 28.8 mph N/A Snow Low Drifting Snow
8:00 PM 3.2 °F -17.6 °F -7.6 °F 61% 29.64 in 15.0 mi North 19.6 mph 28.8 mph N/A Snow Low Drifting Snow
9:00 PM 1.4 °F -18.8 °F -7.6 °F 66% 29.65 in 15.0 mi NNW 17.3 mph 29.9 mph N/A Snow Low Drifting Snow
10:00 PM -0.4 °F -19.9 °F -9.4 °F 66% 29.67 in 15.0 mi NW 15.0 mph 29.9 mph N/A Snow Low Drifting Snow
11:00 PM -2.2 °F -21.5 °F -11.2 °F 66% 29.67 in 15.0 mi NNW 13.8 mph 27.6 mph N/A Snow Low Drifting Snow